Covington, KY

2:33 PM EDT on March 23, 2017 (GMT -0400)
Cincinnati-Northern KY International

Weather History for KCVG - August, 2013

Change the Weather History Date:

Monday, August 5, 2013

  Actual Average Record
Temperature  
Mean Temperature 68 °F 76 °F  
Max Temperature 81 °F 85 °F 100 °F (1918)
Min Temperature 54 °F 66 °F 49 °F (1951)
Degree Days  
Heating Degree Days 0 0  
Month to date heating degree days 0 0  
Since 1 June heating degree days 3 15  
Since 1 July heating degree days 2 0  
Cooling Degree Days 3 11  
Month to date cooling degree days 29 55  
Year to date cooling degree days 711 714  
Since 1 June cooling degree days 572 620  
Growing Degree Days 18 (Base 50)    
Moisture  
Dew Point 56 °F    
Average Humidity 68    
Maximum Humidity 93    
Minimum Humidity 42    
Precipitation  
Precipitation 0.00 in 0.11 in 3.52 in (1995)
Month to date precipitation 0.24 0.59  
Year to date precipitation 29.60 26.97  
Snow  
Snow 0.00 in 0.00 in 0.00 in ()
Month to date snowfall 0.0 0.0  
Since 1 June snowfall 0.0 0.0  
Since 1 July snowfall 0.0 0.0  
Snow Depth 0.00 in    
Sea Level Pressure  
Sea Level Pressure 30.06 in    
Wind  
Wind Speed 3 mph (SSE)    
Max Wind Speed 10 mph    
Max Gust Speed 13 mph    
Visibility 10 miles    
Events      
T = Trace of Precipitation, MM = Missing Value Source: NWS Daily Summary

Daily Weather History Graph

Daily Weather History Graph

Search for Another Location

Airport or City:

Trip Planner

Search our weather history database for the weather conditions in past years. The results will help you decide how hot, cold, wet, or windy it might be!

Date:

Astronomy

Aug. 05, 2013 Rise Set
Actual Time 6:43 AM EDT 8:45 PM EDT
Civil Twilight 6:13 AM EDT 9:14 PM EDT
Nautical Twilight 5:37 AM EDT 9:50 PM EDT
Astronomical Twilight 4:58 AM EDT 10:29 PM EDT
Moon 5:37 AM EDT (8/5) 7:45 PM EDT (8/5)
Length of Visible Light 15h 01m
Length of Day
14h 02m
Waning Crescent, 1% of the Moon is Illuminated
Aug 5
Waning Crescent
Aug 6
New
Aug 14
First Quarter
Aug 20
Full
Aug 28
Last Quarter

Hourly Weather History & Observations

Time (EDT) Temp. Dew Point Humidity Pressure Visibility Wind Dir Wind Speed Gust Speed Precip Events Conditions
12:52 AM 61.0 °F 55.9 °F 83% 30.12 in 10.0 mi Calm Calm - N/A   Scattered Clouds
1:52 AM 61.0 °F 55.9 °F 83% 30.11 in 10.0 mi Calm Calm - N/A   Scattered Clouds
2:52 AM 57.9 °F 55.0 °F 90% 30.11 in 10.0 mi Calm Calm - N/A   Partly Cloudy
3:52 AM 60.1 °F 55.9 °F 86% 30.11 in 10.0 mi Calm Calm - N/A   Clear
4:52 AM 60.1 °F 55.9 °F 86% 30.10 in 10.0 mi Calm Calm - N/A   Partly Cloudy
5:52 AM 61.0 °F 55.0 °F 81% 30.09 in 10.0 mi Calm Calm - N/A   Partly Cloudy
6:52 AM 57.9 °F 55.9 °F 93% 30.11 in 10.0 mi Calm Calm - N/A   Partly Cloudy
7:52 AM 60.1 °F 57.9 °F 93% 30.11 in 10.0 mi Calm Calm - N/A   Partly Cloudy
8:52 AM 66.9 °F 60.1 °F 79% 30.11 in 10.0 mi Calm Calm - N/A   Clear
9:52 AM 71.1 °F 57.0 °F 61% 30.11 in 10.0 mi SSE 6.9 mph - N/A   Clear
10:52 AM 73.0 °F 55.0 °F 53% 30.10 in 10.0 mi SSE 4.6 mph - N/A   Partly Cloudy
11:52 AM 75.0 °F 55.0 °F 50% 30.08 in 10.0 mi Calm Calm - N/A   Scattered Clouds
12:52 PM 75.0 °F 52.0 °F 44% 30.07 in 10.0 mi Calm Calm - N/A   Scattered Clouds
1:52 PM 78.1 °F 54.0 °F 43% 30.06 in 10.0 mi SW 4.6 mph - N/A   Scattered Clouds
2:52 PM 78.1 °F 54.0 °F 43% 30.04 in 10.0 mi Calm Calm - N/A   Scattered Clouds
3:52 PM 79.0 °F 53.1 °F 40% 30.02 in 10.0 mi Variable 4.6 mph - N/A   Scattered Clouds
4:52 PM 79.0 °F 54.0 °F 42% 30.02 in 10.0 mi South 5.8 mph - N/A   Scattered Clouds
5:52 PM 78.1 °F 55.0 °F 45% 30.01 in 10.0 mi South 3.5 mph - N/A   Mostly Cloudy
6:52 PM 77.0 °F 55.9 °F 48% 29.99 in 10.0 mi Calm Calm - N/A   Mostly Cloudy
7:52 PM 73.9 °F 57.9 °F 57% 29.97 in 10.0 mi South 4.6 mph - N/A   Overcast
8:52 PM 73.9 °F 57.0 °F 55% 29.97 in 10.0 mi ESE 6.9 mph - N/A   Mostly Cloudy
9:52 PM 73.0 °F 57.0 °F 57% 29.98 in 10.0 mi ESE 6.9 mph - N/A   Overcast
10:52 PM 70.0 °F 57.9 °F 65% 29.99 in 10.0 mi SSE 4.6 mph - N/A   Mostly Cloudy
11:52 PM 71.1 °F 57.0 °F 61% 29.97 in 10.0 mi SE 8.1 mph - N/A   Overcast